Location: Middelsbur
(53.6609°N, 7.5020°E)
Time: 23:11:44
(UTC+00:00)

Cosmos 1076 Rocket - Pass Details

Date: 06 July 2020
Orbit: 589 x 613 km, 82.5° (Epoch: 14 August)

Event Time Altitude Azimuth Distance (km) Brightness Sun altitude
Exits shadow 21:47:31 13° 172° (S) 1,742 5.3 -10.3°
Maximum altitude 21:51:12 56° 96° (E) 715 3.7 -10.5°
Drops below altitude 10° 21:55:24 10° 18° (NNE) 1,943 6.9 -10.8°
Sets 21:57:38 0° 15° (NNE) 2,847 7.9 -10.9°
